| time (UTC) | temp C | wind direction | speed KPH | gust KPH | rain 1hr cm | rain 24hr cm | rain mn cm | humidity % | barometer mb |
| 20260506141546 | 10 | 103 | 6.4 | 8.0 | 0.00 | 0.00 | 0.00 | 45 | 1018.4 |
| 20260506141009 | 10 | 71 | 4.8 | 8.0 | 0.00 | 0.00 | 0.00 | 47 | 1018.2 |
| 20260506140546 | 10 | 89 | 4.8 | 8.0 | 0.00 | 0.00 | 0.00 | 47 | 1018.3 |
| 20260506140047 | 10 | 113 | 4.8 | 8.0 | 0.00 | 0.00 | 0.00 | 48 | 1018.2 |
| 20260506135547 | 10 | 94 | 6.4 | 8.0 | 0.00 | 0.00 | 0.00 | 49 | 1018.3 |
| 20260506135010 | 10 | 103 | 4.8 | 4.8 | 0.00 | 0.00 | 0.00 | 49 | 1018.2 |
| 20260506134547 | 8 | 103 | 3.2 | 4.8 | 0.00 | 0.00 | 0.00 | 52 | 1018.2 |
| 20260506134046 | 7 | 148 | 3.2 | 4.8 | 0.00 | 0.00 | 0.00 | 56 | 1018.0 |
| 20260506133546 | 6 | 131 | 0.0 | 4.8 | 0.00 | 0.00 | 0.00 | 59 | 1018.0 |
| 20260506133047 | 5 | 60 | 0.0 | 4.8 | 0.00 | 0.00 | 0.00 | 61 | 1018.0 |
| 20260506131047 | 3 | 271 | 4.8 | 4.8 | 0.00 | 0.00 | 0.00 | 69 | 1017.9 |
| 20260506130510 | 2 | 255 | 3.2 | 4.8 | 0.00 | 0.00 | 0.00 | 72 | 1018.0 |
| 20260506130010 | 2 | 313 | 3.2 | 3.2 | 0.00 | 0.00 | 0.00 | 73 | 1017.8 |
| 20260506125546 | 2 | 254 | 4.8 | 4.8 | 0.00 | 0.00 | 0.00 | 74 | 1018.0 |
| 20260506125010 | 1 | 311 | 3.2 | 4.8 | 0.00 | 0.00 | 0.00 | 75 | 1018.0 |
| 20260506123011 | 2 | 0 | 0.0 | 3.2 | 0.00 | 0.00 | 0.00 | 73 | 1017.5 |
| 20260506122547 | 2 | 193 | 0.0 | 3.2 | 0.00 | 0.00 | 0.00 | 73 | 1017.4 |
| 20260506122047 | 3 | 193 | 0.0 | 4.8 | 0.00 | 0.00 | 0.00 | 70 | 1017.2 |
| 20260506121510 | 3 | 201 | 3.2 | 4.8 | 0.00 | 0.00 | 0.00 | 71 | 1017.4 |
| 20260506121010 | 2 | 268 | 4.8 | 4.8 | 0.00 | 0.00 | 0.00 | 72 | 1017.4 |
| 20260506120547 | 2 | 252 | 3.2 | 6.4 | 0.00 | 0.00 | 0.00 | 71 | 1017.6 |
| 20260506120047 | 3 | 246 | 0.0 | 0.0 | 0.00 | 0.00 | 0.00 | 68 | 1017.5 |
| 20260506115547 | 3 | 246 | 0.0 | 0.0 | 0.00 | 0.00 | 0.00 | 68 | 1017.3 |
| 20260506115047 | 3 | 246 | 0.0 | 0.0 | 0.00 | 0.00 | 0.00 | 68 | 1017.6 |
| 20260506112010 | 4 | 252 | 6.4 | 6.4 | 0.00 | 0.00 | 0.00 | 65 | 1017.2 |
| 20260506111547 | 3 | 255 | 8.0 | 8.0 | 0.00 | 0.00 | 0.00 | 66 | 1017.3 |
| 20260506111011 | 3 | 253 | 4.8 | 4.8 | 0.00 | 0.00 | 0.00 | 67 | 1017.2 |
| 20260506110547 | 3 | 185 | 3.2 | 3.2 | 0.00 | 0.00 | 0.00 | 66 | 1017.5 |
| 20260506110047 | 3 | 340 | 0.0 | 3.2 | 0.00 | 0.00 | 0.00 | 66 | 1017.3 |
| 20260506105547 | 3 | 180 | 0.0 | 0.0 | 0.00 | 0.00 | 0.00 | 68 | 1017.2 |
| 20260506105010 | 3 | 180 | 0.0 | 0.0 | 0.00 | 0.00 | 0.00 | 68 | 1017.3 |
| 20260506104546 | 2 | 211 | 4.8 | 4.8 | 0.00 | 0.00 | 0.00 | 69 | 1017.1 |
| 20260506104047 | 2 | 125 | 4.8 | 8.0 | 0.00 | 0.00 | 0.00 | 67 | 1017.1 |
| 20260506102047 | 4 | 237 | 4.8 | 6.4 | 0.00 | 0.00 | 0.00 | 63 | 1017.0 |
| 20260506101547 | 4 | 237 | 4.8 | 6.4 | 0.00 | 0.00 | 0.00 | 63 | 1017.1 |
| 20260506101047 | 4 | 251 | 6.4 | 8.0 | 0.00 | 0.00 | 0.00 | 63 | 1017.1 |
| 20260506100547 | 4 | 261 | 8.0 | 8.0 | 0.00 | 0.00 | 0.00 | 63 | 1017.1 |
| 20260506100009 | 4 | 227 | 4.8 | 6.4 | 0.00 | 0.00 | 0.00 | 62 | 1017.0 |
| 20260506095547 | 5 | 235 | 6.4 | 8.0 | 0.00 | 0.00 | 0.00 | 61 | 1017.2 |
| 20260506095046 | 5 | 249 | 6.4 | 6.4 | 0.00 | 0.00 | 0.00 | 60 | 1017.0 |
| 20260506094509 | 5 | 225 | 6.4 | 8.0 | 0.00 | 0.00 | 0.00 | 59 | 1017.2 |
| 20260506092546 | 5 | 217 | 4.8 | 6.4 | 0.00 | 0.00 | 0.00 | 61 | 1017.1 |
| 20260506092046 | 5 | 217 | 4.8 | 6.4 | 0.00 | 0.00 | 0.00 | 61 | 1016.8 |
| 20260506091547 | 5 | 217 | 4.8 | 6.4 | 0.00 | 0.00 | 0.00 | 61 | 1016.7 |
| 20260506091009 | 5 | 217 | 4.8 | 6.4 | 0.00 | 0.00 | 0.00 | 61 | 1016.7 |
| 20260506090546 | 5 | 217 | 4.8 | 6.4 | 0.00 | 0.00 | 0.00 | 61 | 1016.7 |
| 20260506090047 | 5 | 264 | 8.0 | 8.0 | 0.00 | 0.00 | 0.00 | 58 | 1016.7 |
| 20260506085546 | 5 | 264 | 8.0 | 8.0 | 0.00 | 0.00 | 0.00 | 58 | 1016.6 |
| 20260506085009 | 5 | 264 | 8.0 | 8.0 | 0.00 | 0.00 | 0.00 | 58 | 1017.0 |
| 20260506084547 | 5 | 264 | 8.0 | 8.0 | 0.00 | 0.00 | 0.00 | 58 | 1016.8 |
| 20260506084047 | 5 | 264 | 8.0 | 8.0 | 0.00 | 0.00 | 0.00 | 58 | 1016.6 |
| 20260506083547 | 5 | 265 | 6.4 | 11.3 | 0.00 | 0.00 | 0.00 | 59 | 1016.7 |
| 20260506083047 | 5 | 268 | 9.7 | 11.3 | 0.00 | 0.00 | 0.00 | 59 | 1016.8 |
| 20260506082546 | 5 | 255 | 8.0 | 8.0 | 0.00 | 0.00 | 0.00 | 59 | 1016.5 |
| 20260506082009 | 5 | 255 | 8.0 | 8.0 | 0.00 | 0.00 | 0.00 | 59 | 1016.4 |
| 20260506081547 | 5 | 255 | 8.0 | 8.0 | 0.00 | 0.00 | 0.00 | 59 | 1016.7 |
| 20260506080510 | 5 | 241 | 4.8 | 6.4 | 0.00 | 0.00 | 0.00 | 56 | 1016.7 |
| 20260506073010 | 5 | 241 | 4.8 | 6.4 | 0.00 | 0.00 | 0.00 | 56 | 1016.8 |
| 20260506072546 | 5 | 241 | 4.8 | 6.4 | 0.00 | 0.00 | 0.00 | 56 | 1016.8 |
| 20260506072047 | 5 | 241 | 4.8 | 6.4 | 0.00 | 0.00 | 0.00 | 56 | 1016.7 |
| 20260506071510 | 5 | 241 | 4.8 | 6.4 | 0.00 | 0.00 | 0.00 | 56 | 1016.6 |
| 20260506071010 | 5 | 241 | 4.8 | 6.4 | 0.00 | 0.00 | 0.00 | 56 | 1016.6 |
| 20260506070514 | 6 | 257 | 4.8 | 4.8 | 0.00 | 0.00 | 0.00 | 56 | 1016.7 |
| 20260506061010 | 6 | 263 | 6.4 | 8.0 | 0.00 | 0.00 | 0.00 | 51 | 1016.3 |
| 20260506060547 | 6 | 263 | 6.4 | 8.0 | 0.00 | 0.00 | 0.00 | 51 | 1016.5 |
| 20260506051047 | 6 | 247 | 6.4 | 8.0 | 0.00 | 0.00 | 0.00 | 51 | 1016.3 |
| 20260506050547 | 7 | 249 | 6.4 | 6.4 | 0.00 | 0.00 | 0.00 | 51 | 1016.2 |
| 20260506045046 | 7 | 247 | 4.8 | 4.8 | 0.00 | 0.00 | 0.00 | 51 | 1016.1 |
| 20260506044510 | 7 | 247 | 4.8 | 4.8 | 0.00 | 0.00 | 0.00 | 51 | 1016.3 |
| 20260506044009 | 7 | 247 | 4.8 | 4.8 | 0.00 | 0.00 | 0.00 | 51 | 1016.0 |
| 20260506043546 | 7 | 256 | 4.8 | 4.8 | 0.00 | 0.00 | 0.00 | 51 | 1016.1 |
| 20260506043009 | 7 | 237 | 4.8 | 4.8 | 0.00 | 0.00 | 0.00 | 51 | 1016.1 |
| 20260506042546 | 7 | 230 | 4.8 | 8.0 | 0.00 | 0.00 | 0.00 | 51 | 1016.0 |
| 20260506042047 | 7 | 212 | 4.8 | 6.4 | 0.00 | 0.00 | 0.00 | 52 | 1016.0 |
| 20260506041547 | 7 | 231 | 4.8 | 4.8 | 0.00 | 0.00 | 0.00 | 52 | 1015.8 |
| 20260506035510 | 7 | 260 | 4.8 | 6.4 | 0.00 | 0.00 | 0.00 | 51 | 1016.0 |
| 20260506035010 | 7 | 252 | 4.8 | 6.4 | 0.00 | 0.00 | 0.00 | 50 | 1015.9 |
| 20260506034547 | 7 | 228 | 6.4 | 6.4 | 0.00 | 0.00 | 0.00 | 50 | 1015.7 |
| 20260506034047 | 7 | 210 | 4.8 | 4.8 | 0.00 | 0.00 | 0.00 | 50 | 1015.8 |
| 20260506033547 | 7 | 253 | 4.8 | 4.8 | 0.00 | 0.00 | 0.00 | 50 | 1015.7 |
| 20260506033047 | 7 | 220 | 3.2 | 3.2 | 0.00 | 0.00 | 0.00 | 50 | 1015.6 |
| 20260506031046 | 7 | 224 | 4.8 | 9.7 | 0.00 | 0.00 | 0.00 | 50 | 1015.3 |
| 20260506030510 | 8 | 199 | 4.8 | 6.4 | 0.00 | 0.00 | 0.00 | 49 | 1015.3 |
| 20260506030010 | 8 | 191 | 4.8 | 6.4 | 0.00 | 0.00 | 0.00 | 49 | 1015.2 |
| 20260506025546 | 8 | 174 | 4.8 | 4.8 | 0.00 | 0.00 | 0.00 | 49 | 1015.3 |
| 20260506025010 | 8 | 176 | 4.8 | 8.0 | 0.00 | 0.00 | 0.00 | 48 | 1015.0 |
| 20260506024547 | 8 | 216 | 8.0 | 11.3 | 0.00 | 0.00 | 0.00 | 48 | 1015.0 |
| 20260506024046 | 8 | 195 | 3.2 | 8.0 | 0.00 | 0.00 | 0.00 | 47 | 1014.7 |
| 20260506023547 | 9 | 224 | 14.5 | 16.1 | 0.00 | 0.00 | 0.00 | 44 | 1014.7 |
| 20260506023010 | 9 | 224 | 14.5 | 16.1 | 0.00 | 0.00 | 0.00 | 44 | 1014.6 |
| 20260506022547 | 9 | 224 | 14.5 | 16.1 | 0.00 | 0.00 | 0.00 | 44 | 1014.6 |
| 20260506022047 | 9 | 224 | 14.5 | 16.1 | 0.00 | 0.00 | 0.00 | 44 | 1014.6 |
| 20260506021509 | 9 | 224 | 14.5 | 16.1 | 0.00 | 0.00 | 0.00 | 44 | 1014.3 |
| 20260506021009 | 9 | 224 | 14.5 | 16.1 | 0.00 | 0.00 | 0.00 | 44 | 1014.3 |
| 20260506020546 | 11 | 226 | 11.3 | 17.7 | 0.00 | 0.00 | 0.00 | 41 | 1014.4 |
| 20260506020009 | 11 | 226 | 11.3 | 17.7 | 0.00 | 0.00 | 0.00 | 41 | 1014.3 |
| 20260506015546 | 11 | 226 | 11.3 | 17.7 | 0.00 | 0.00 | 0.00 | 41 | 1014.2 |
| 20260506015047 | 11 | 226 | 11.3 | 17.7 | 0.00 | 0.00 | 0.00 | 41 | 1014.1 |
| 20260506014546 | 11 | 226 | 11.3 | 17.7 | 0.00 | 0.00 | 0.00 | 41 | 1014.0 |
| 20260506014009 | 11 | 226 | 11.3 | 17.7 | 0.00 | 0.00 | 0.00 | 41 | 1014.1 |
| 20260506013546 | 11 | 226 | 11.3 | 17.7 | 0.00 | 0.00 | 0.00 | 41 | 1014.0 |
| 20260506010546 | 11 | 217 | 6.4 | 8.0 | 0.00 | 0.00 | 0.00 | 40 | 1013.9 |
| 20260506010046 | 11 | 217 | 6.4 | 8.0 | 0.00 | 0.00 | 0.00 | 40 | 1013.8 |
| 20260506005547 | 11 | 217 | 6.4 | 8.0 | 0.00 | 0.00 | 0.00 | 40 | 1013.9 |
| 20260506005046 | 11 | 217 | 6.4 | 8.0 | 0.00 | 0.00 | 0.00 | 40 | 1013.9 |
| 20260506004546 | 11 | 217 | 6.4 | 8.0 | 0.00 | 0.00 | 0.00 | 40 | 1013.9 |
| 20260506004047 | 11 | 217 | 6.4 | 8.0 | 0.00 | 0.00 | 0.00 | 40 | 1013.8 |
| 20260506003547 | 11 | 217 | 6.4 | 8.0 | 0.00 | 0.00 | 0.00 | 40 | 1013.9 |
| 20260506003010 | 11 | 217 | 6.4 | 8.0 | 0.00 | 0.00 | 0.00 | 40 | 1013.7 |
| 20260506002547 | 11 | 217 | 6.4 | 8.0 | 0.00 | 0.00 | 0.00 | 40 | 1013.8 |
| 20260506002046 | 11 | 217 | 6.4 | 8.0 | 0.00 | 0.00 | 0.00 | 40 | 1013.8 |
| 20260506001546 | 11 | 217 | 6.4 | 8.0 | 0.00 | 0.00 | 0.00 | 40 | 1013.5 |
| 20260506001047 | 11 | 217 | 6.4 | 8.0 | 0.00 | 0.00 | 0.00 | 40 | 1013.5 |
| 20260506000547 | 11 | 235 | 17.7 | 29.0 | 0.00 | 0.00 | 0.00 | 40 | 1013.6 |
| 20260506000010 | 11 | 202 | 22.5 | 32.2 | 0.00 | 0.00 | 0.00 | 40 | 1013.4 |
| 20260505235547 | 11 | 218 | 14.5 | 25.7 | 0.00 | 0.00 | 0.00 | 39 | 1013.5 |
| 20260505235047 | 11 | 206 | 17.7 | 30.6 | 0.00 | 0.00 | 0.00 | 40 | 1013.5 |
| 20260505234510 | 11 | 178 | 20.9 | 32.2 | 0.00 | 0.00 | 0.00 | 39 | 1013.4 |
| 20260505234010 | 11 | 205 | 27.4 | 33.8 | 0.00 | 0.00 | 0.00 | 39 | 1013.5 |
| 20260505233547 | 12 | 150 | 12.9 | 16.1 | 0.00 | 0.00 | 0.00 | 39 | 1013.1 |
| 20260505233010 | 11 | 217 | 19.3 | 37.0 | 0.00 | 0.00 | 0.00 | 40 | 1013.2 |
| 20260505232546 | 11 | 214 | 6.4 | 33.8 | 0.00 | 0.00 | 0.00 | 40 | 1013.0 |
| 20260505232046 | 12 | 213 | 8.0 | 29.0 | 0.00 | 0.00 | 0.00 | 39 | 1013.1 |
| 20260505231546 | 12 | 223 | 11.3 | 20.9 | 0.00 | 0.00 | 0.00 | 38 | 1013.1 |
| 20260505231010 | 12 | 208 | 17.7 | 45.1 | 0.00 | 0.00 | 0.00 | 37 | 1013.0 |
| 20260505230547 | 12 | 211 | 25.7 | 27.4 | 0.00 | 0.00 | 0.00 | 34 | 1013.0 |
| 20260505230047 | 12 | 211 | 25.7 | 27.4 | 0.00 | 0.00 | 0.00 | 34 | 1013.0 |
| 20260505224047 | 13 | 188 | 20.9 | 35.4 | 0.00 | 0.00 | 0.00 | 33 | 1013.1 |
| 20260505223547 | 13 | 188 | 20.9 | 35.4 | 0.00 | 0.00 | 0.00 | 33 | 1013.3 |
| 20260505223047 | 12 | 225 | 16.1 | 17.7 | 0.00 | 0.00 | 0.00 | 35 | 1013.1 |
| 20260505222547 | 12 | 195 | 22.5 | 41.8 | 0.00 | 0.00 | 0.00 | 34 | 1013.5 |
| 20260505222011 | 12 | 264 | 29.0 | 30.6 | 0.00 | 0.00 | 0.00 | 34 | 1013.4 |
| 20260505221547 | 13 | 196 | 24.1 | 41.8 | 0.00 | 0.00 | 0.00 | 32 | 1013.3 |
| 20260505221047 | 13 | 217 | 9.7 | 19.3 | 0.00 | 0.00 | 0.00 | 33 | 1013.4 |
| 20260505220511 | 13 | 200 | 25.7 | 32.2 | 0.00 | 0.00 | 0.00 | 33 | 1013.6 |
| 20260505214546 | 13 | 214 | 20.9 | 22.5 | 0.00 | 0.00 | 0.00 | 36 | 1013.6 |
| 20260505214046 | 13 | 214 | 20.9 | 22.5 | 0.00 | 0.00 | 0.00 | 36 | 1013.6 |
| 20260505213547 | 13 | 214 | 20.9 | 22.5 | 0.00 | 0.00 | 0.00 | 36 | 1013.3 |
| 20260505213011 | 13 | 214 | 20.9 | 22.5 | 0.00 | 0.00 | 0.00 | 36 | 1013.8 |
| 20260505212546 | 12 | 196 | 20.9 | 30.6 | 0.00 | 0.00 | 0.00 | 38 | 1013.8 |
| 20260505212046 | 12 | 196 | 20.9 | 30.6 | 0.00 | 0.00 | 0.00 | 38 | 1013.8 |
| 20260505211511 | 13 | 189 | 9.7 | 20.9 | 0.00 | 0.00 | 0.00 | 39 | 1013.9 |
| 20260505211010 | 13 | 223 | 14.5 | 16.1 | 0.00 | 0.00 | 0.00 | 41 | 1013.8 |
| 20260505210546 | 13 | 223 | 19.3 | 27.4 | 0.00 | 0.00 | 0.00 | 41 | 1013.8 |
| 20260505210046 | 11 | 170 | 12.9 | 17.7 | 0.00 | 0.00 | 0.00 | 48 | 1013.8 |
| 20260505205546 | 11 | 170 | 12.9 | 17.7 | 0.00 | 0.00 | 0.00 | 48 | 1013.9 |
| 20260505205046 | 11 | 171 | 12.9 | 29.0 | 0.00 | 0.00 | 0.00 | 49 | 1014.0 |
| 20260505204546 | 12 | 174 | 22.5 | 40.2 | 0.00 | 0.00 | 0.00 | 47 | 1013.8 |
| 20260505204010 | 13 | 221 | 22.5 | 29.0 | 0.00 | 0.00 | 0.00 | 45 | 1013.9 |
| 20260505203547 | 12 | 200 | 25.7 | 30.6 | 0.00 | 0.00 | 0.00 | 47 | 1013.8 |
| 20260505202010 | 11 | 128 | 8.0 | 22.5 | 0.00 | 0.00 | 0.00 | 46 | 1014.2 |
| 20260505201547 | 11 | 128 | 8.0 | 22.5 | 0.00 | 0.00 | 0.00 | 46 | 1014.2 |
| 20260505201011 | 11 | 128 | 8.0 | 22.5 | 0.00 | 0.00 | 0.00 | 46 | 1014.2 |
| 20260505195011 | 11 | 128 | 8.0 | 22.5 | 0.00 | 0.00 | 0.00 | 46 | 1014.4 |
| 20260505194546 | 11 | 128 | 8.0 | 22.5 | 0.00 | 0.00 | 0.00 | 46 | 1014.4 |
| 20260505194046 | 11 | 128 | 8.0 | 22.5 | 0.00 | 0.00 | 0.00 | 46 | 1014.3 |
| 20260505192046 | 11 | 173 | 20.9 | 30.6 | 0.00 | 0.00 | 0.00 | 46 | 1014.6 |
| 20260505191546 | 11 | 171 | 24.1 | 24.1 | 0.00 | 0.00 | 0.00 | 49 | 1014.4 |
| 20260505191047 | 11 | 221 | 14.5 | 25.7 | 0.00 | 0.00 | 0.00 | 50 | 1014.5 |
| 20260505185047 | 10 | 262 | 16.1 | 17.7 | 0.00 | 0.00 | 0.00 | 57 | 1014.5 |
| 20260505184511 | 10 | 262 | 16.1 | 17.7 | 0.00 | 0.00 | 0.00 | 57 | 1014.4 |
| 20260505184047 | 10 | 193 | 17.7 | 20.9 | 0.00 | 0.00 | 0.00 | 54 | 1014.4 |
| 20260505183546 | 10 | 193 | 17.7 | 20.9 | 0.00 | 0.00 | 0.00 | 54 | 1014.5 |
| 20260505183010 | 11 | 222 | 16.1 | 19.3 | 0.00 | 0.00 | 0.00 | 50 | 1014.6 |
| 20260505182546 | 11 | 222 | 16.1 | 25.7 | 0.00 | 0.00 | 0.00 | 50 | 1014.3 |
| 20260505182046 | 12 | 132 | 6.4 | 17.7 | 0.00 | 0.00 | 0.00 | 48 | 1014.3 |
| 20260505181547 | 12 | 179 | 8.0 | 17.7 | 0.00 | 0.00 | 0.00 | 48 | 1014.3 |
| 20260505175546 | 11 | 141 | 19.3 | 22.5 | 0.00 | 0.00 | 0.00 | 51 | 1014.3 |
| 20260505175010 | 11 | 213 | 9.7 | 33.8 | 0.00 | 0.00 | 0.00 | 50 | 1014.2 |
| 20260505174547 | 12 | 157 | 14.5 | 29.0 | 0.00 | 0.00 | 0.00 | 47 | 1014.2 |
| 20260505174011 | 11 | 153 | 17.7 | 33.8 | 0.00 | 0.00 | 0.00 | 50 | 1014.3 |
| 20260505173547 | 11 | 170 | 19.3 | 24.1 | 0.00 | 0.00 | 0.00 | 51 | 1014.3 |
| 20260505173047 | 10 | 203 | 22.5 | 29.0 | 0.00 | 0.00 | 0.00 | 55 | 1014.2 |
| 20260505171546 | 10 | 135 | 16.1 | 25.7 | 0.00 | 0.00 | 0.00 | 51 | 1014.2 |
| 20260505171046 | 10 | 121 | 14.5 | 24.1 | 0.00 | 0.00 | 0.00 | 52 | 1014.2 |
| 20260505170547 | 12 | 196 | 25.7 | 30.6 | 0.00 | 0.00 | 0.00 | 49 | 1014.2 |
| 20260505170011 | 12 | 137 | 8.0 | 20.9 | 0.00 | 0.00 | 0.00 | 50 | 1014.1 |
| 20260505165503 | 12 | 164 | 20.9 | 20.9 | 0.00 | 0.00 | 0.00 | 47 | 1014.1 |
| 20260505165046 | 11 | 164 | 8.0 | 12.9 | 0.00 | 0.00 | 0.00 | 52 | 1014.0 |
| 20260505164546 | 12 | 175 | 20.9 | 27.4 | 0.00 | 0.00 | 0.00 | 49 | 1014.1 |
| 20260505164047 | 11 | 129 | 20.9 | 27.4 | 0.00 | 0.00 | 0.00 | 51 | 1014.1 |
| 20260505163547 | 12 | 139 | 14.5 | 29.0 | 0.00 | 0.00 | 0.00 | 48 | 1014.2 |
| 20260505163010 | 11 | 163 | 11.3 | 14.5 | 0.00 | 0.00 | 0.00 | 54 | 1014.1 |
| 20260505162547 | 10 | 144 | 8.0 | 22.5 | 0.00 | 0.00 | 0.00 | 55 | 1014.1 |
| 20260505162046 | 10 | 134 | 8.0 | 29.0 | 0.00 | 0.00 | 0.00 | 56 | 1014.1 |
| 20260505161511 | 10 | 191 | 8.0 | 24.1 | 0.00 | 0.00 | 0.00 | 54 | 1014.4 |
| 20260505161010 | 11 | 281 | 6.4 | 14.5 | 0.00 | 0.00 | 0.00 | 55 | 1014.3 |
| 20260505160546 | 11 | 220 | 4.8 | 16.1 | 0.00 | 0.00 | 0.00 | 56 | 1014.4 |
| 20260505153046 | 10 | 128 | 17.7 | 32.2 | 0.00 | 0.00 | 0.00 | 60 | 1014.1 |
| 20260505152511 | 10 | 136 | 20.9 | 24.1 | 0.00 | 0.00 | 0.00 | 58 | 1014.1 |
| 20260505152011 | 10 | 135 | 11.3 | 20.9 | 0.00 | 0.00 | 0.00 | 57 | 1014.2 |
| 20260505151547 | 10 | 126 | 12.9 | 16.1 | 0.00 | 0.00 | 0.00 | 57 | 1014.1 |
| 20260505151010 | 10 | 107 | 6.4 | 9.7 | 0.00 | 0.00 | 0.00 | 57 | 1014.0 |
| 20260505150546 | 10 | 116 | 11.3 | 17.7 | 0.00 | 0.00 | 0.00 | 59 | 1014.2 |